Location: Paddlesworth
(51.1000°N, 1.1333°E)
Time: 08:42:09
(UTC+00:00)

Okean 1 - Pass Details

Date: 11 May 2021
Orbit: 537 x 555 km, 82.5° (Epoch: 15 June)

Event Time Altitude Azimuth Distance (km) Brightness Sun altitude
Exits shadow 22:30:00 44° 136° (SE) 767 3.6 -18.5°
Maximum altitude 22:30:48 52° 95° (E) 684 3.6 -18.5°
Drops below altitude 10° 22:34:43 10° 19° (NNE) 1,825 6.7 -18.7°
Sets 22:36:54 0° 15° (NNE) 2,721 7.8 -18.8°
